Regional Weather Roundup
Issued by NWS State College, PA

Current Version | Previous Version | Text Only | Print | Product List | Glossary On
Versions: 1 2 3 4 5 6 7 8 9 10 11 12 13 14 15 16 17 18 19 20 21 22 23 24 25 26 27 28 29 30 31 32 33 34 35 36 37 38 39 40 41 42 43 44 45 46 47 48 49 50
000
ASUS41 KCTP 311910
RWRCTP

REGIONAL WEATHER ROUNDUP
NATIONAL WEATHER SERVICE STATE COLLEGE PA
300 PM EDT MON AUG 31 2015

Note: "fair" indicates few or no clouds below 12,000 feet with no
significant weather and/or obstructions to visibility.

* = STATION THAT DOES NOT REPORT PRECIPITATION /E.G. RAIN...SNOW...ETC/
    THUNDER OR FOG.

PAZ002>004-007>009-013>016-020>023-029>032-312000-
WESTERN PENNSYLVANIA

CITY           SKY/WX    TMP DP  RH WIND       PRES   REMARKS
ERIE           SUNNY     80  68  66 W12       30.08S
MEADVILLE      MOSUNNY   83  65  54 W10       30.10F
FRANKLIN*      PTSUNNY   82  66  57 SW10      30.12F
NEW CASTLE     NOT AVBL
BEAVER COUNTY  MOSUNNY   84  66  54 W3        30.10F
BUTLER*        PTSUNNY   86  66  51 W9        30.11F
PITTSBURGH INT MOSUNNY   87  62  43 SW7       30.09F
PITTSBURGH     SUNNY     86  58  38 NW8       30.08F
INDIANA*       MOSUNNY   84  64  51 VRB5      30.12F
LATROBE        MOSUNNY   86  64  48 W9        30.09F
WASHINGTON CO* SUNNY     86  64  48 NW10      30.10F
$$

PAZ004>006-010>012-017>019-024>028-033>037-041-042-045-046-049>053-312000-
CENTRAL PENNSYLVANIA

CITY           SKY/WX    TMP DP  RH WIND       PRES   REMARKS
BRADFORD       PTSUNNY   81  61  50 W8        30.11F
DUBOIS         SUNNY     83  64  52 SW9       30.10F
CLEARFIELD     PTSUNNY   85  64  49 W12       30.10F
JOHNSTOWN      MOSUNNY   83  61  47 W9G17     30.14F
ALTOONA        PTSUNNY   77  69  76 S3        30.11F
STATE COLLEGE  MOSUNNY   86  66  51 NW7       30.07F
WILLIAMSPORT   PTSUNNY   85  68  56 W6        30.02F
SELINSGROVE    MOSUNNY   90  69  50 VRB5      30.02F
FT INDIANTOWN  MOSUNNY   87  65  47 VRB5      30.03F
CAPITAL CITY   PTSUNNY   87  65  47 W7        30.03F
HARRISBURG     PTSUNNY   89  67  47 CALM      30.02F
YORK           PTSUNNY   86  69  56 VRB3      30.05F
$$

PAZ038>040-043-044-047-048-054-055-060>062-067>071-312000-
EASTERN PENNSYLVANIA

CITY           SKY/WX    TMP DP  RH WIND       PRES   REMARKS
SCRANTON       HVY RAIN  74  70  87 MISG      30.03F FOG
MOUNT POCONO   CLOUDY    79  63  57 W9        30.08F
ALLENTOWN      MOSUNNY   88  65  46 W9        30.01F
QUAKERTOWN*    PTCLDY    90  66  45 SW9       30.03F
READING        MOSUNNY   88  67  49 W10       30.01F
LANCASTER      MOSUNNY   88  66  48 W12G17    30.03F
COATESVILLE    MOCLDY    84  68  58 SW5       30.06F
POTTSTOWN      MOSUNNY   87  67  51 W6        30.03F
BLUE BELL      MOSUNNY   88  70  55 W7        30.01F
DOYLESTOWN     MOSUNNY   87  66  49 SW7       30.01F
WILLOW GROVE   NOT AVBL
NORTH PHILA    PTSUNNY   89  64  43 VRB7      30.01F
PHILADELPHIA   PTSUNNY   87  67  51 SW14      30.01F
$$


USA.gov is the U.S. government's official web portal to all federal, state and local government web resources and services.